Springfield, OH

4:45 AM EDT on August 18, 2017 (GMT -0400)
Springfield-Beckley Municipal

Weather History for KSGH - March, 2013

Change the Weather History Date:

Saturday, March 2, 2013

  Actual Average (KFFO) Record (KFFO)
Temperature  
Mean Temperature 24 °F -  
Max Temperature 25 °F 43 °F 59 °F (2008)
Min Temperature 23 °F 25 °F 10 °F (2009)
Degree Days  
Heating Degree Days 41    
Moisture  
Dew Point 17 °F    
Average Humidity 73    
Maximum Humidity 80    
Minimum Humidity 69    
Precipitation  
Precipitation 0.00 in - - ()
Sea Level Pressure  
Sea Level Pressure 30.07 in    
Wind  
Wind Speed 9 mph (NNW)    
Max Wind Speed 13 mph    
Max Gust Speed -    
Visibility 6 miles    
Events Snow    
Averages and records for this station are not official NWS values.
T = Trace of Precipitation, MM = Missing Value Source: NWS Daily Summary

Daily Weather History Graph

Daily Weather History Graph

Search for Another Location

Airport or City:

Trip Planner

Search our weather history database for the weather conditions in past years. The results will help you decide how hot, cold, wet, or windy it might be!

Date:

Astronomy

Mar. 02, 2013 Rise Set
Actual Time 7:06 AM EST 6:28 PM EST
Civil Twilight 6:39 AM EST 6:55 PM EST
Nautical Twilight 6:08 AM EST 7:27 PM EST
Astronomical Twilight 5:37 AM EST 7:58 PM EST
Moon No Moon Rise 9:34 AM EST (3/2)
Length of Visible Light 12h 16m
Length of Day
11h 22m
Waning Gibbous, 74% of the Moon is Illuminated
Mar 2
Waning Gibbous
Mar 4
Last Quarter
Mar 11
New
Mar 19
First Quarter
Mar 27
Full

Hourly Weather History & Observations

Time (EST) Temp. Windchill Dew Point Humidity Pressure Visibility Wind Dir Wind Speed Gust Speed Precip Events Conditions
12:56 AM 24.1 °F 12.5 °F 17.1 °F 75% 30.07 in 7.0 mi NE 12.7 mph - 0.00 in   Overcast
1:56 AM 24.1 °F 13.7 °F 16.2 °F 72% 30.07 in 8.0 mi North 10.4 mph - 0.00 in Snow Light Snow
2:56 AM 24.1 °F 16.0 °F 17.1 °F 75% 30.06 in 8.0 mi North 6.9 mph - 0.00 in Snow Light Snow
3:56 AM 24.1 °F 16.0 °F 16.2 °F 72% 30.05 in 8.0 mi North 6.9 mph - 0.00 in Snow Light Snow
4:56 AM 24.1 °F 15.2 °F 17.1 °F 75% 30.05 in 7.0 mi North 8.1 mph - 0.00 in Snow Light Snow
5:56 AM 24.1 °F 15.2 °F 17.1 °F 75% 30.05 in 8.0 mi North 8.1 mph - 0.00 in Snow Light Snow
6:56 AM 24.1 °F 14.4 °F 17.1 °F 75% 30.06 in 7.0 mi North 9.2 mph - 0.00 in Snow Light Snow
7:56 AM 24.1 °F 14.4 °F 17.1 °F 75% 30.07 in 6.0 mi North 9.2 mph - 0.00 in Snow Light Snow
8:56 AM 23.0 °F 11.7 °F 17.1 °F 78% 30.09 in 4.0 mi NNW 11.5 mph - 0.00 in Snow Light Snow
9:56 AM 23.0 °F 13.9 °F 16.2 °F 75% 30.09 in 6.0 mi NNW 8.1 mph - 0.00 in   Haze
10:06 AM 24.8 °F 14.6 °F 17.6 °F 74% 30.04 in 6.0 mi NNW 10.4 mph - N/A   Haze
10:56 AM 25.2 °F 15.7 °F 17.1 °F 71% 30.08 in 4.0 mi NNW 9.2 mph - 0.00 in Snow Light Snow
11:13 AM 24.8 °F 15.3 °F 17.6 °F 74% 30.05 in 2.5 mi NW 9.2 mph - 0.00 in Snow Light Snow
11:22 AM 24.8 °F 15.3 °F 17.6 °F 74% 30.05 in 1.8 mi NW 9.2 mph - 0.00 in Snow Light Snow
11:36 AM 24.8 °F 14.0 °F 19.4 °F 80% 30.05 in 2.5 mi NNW 11.5 mph - 0.00 in Snow Light Snow
11:56 AM 25.2 °F 14.4 °F 18.1 °F 75% 30.09 in 3.0 mi NNW 11.5 mph - 0.00 in Snow Light Snow
12:56 PM 25.2 °F 15.1 °F 16.2 °F 69% 30.07 in 6.0 mi NNW 10.4 mph - 0.00 in   Haze
1:10 PM 24.8 °F 15.3 °F 15.8 °F 69% 30.03 in 6.0 mi NNW 9.2 mph - 0.00 in   Overcast
1:56 PM 25.2 °F 14.4 °F 16.2 °F 69% 30.06 in 7.0 mi NNW 11.5 mph - 0.00 in   Overcast
2:56 PM 25.2 °F 15.7 °F 16.2 °F 69% 30.06 in 6.0 mi NNW 9.2 mph - 0.00 in Snow Light Snow
3:56 PM 25.2 °F 15.7 °F 17.1 °F 71% 30.06 in 5.0 mi NNW 9.2 mph - 0.00 in Snow Light Snow
4:56 PM 25.2 °F 15.1 °F 17.1 °F 71% 30.07 in 6.0 mi NNW 10.4 mph - 0.00 in   Haze
5:56 PM 25.2 °F 15.1 °F 16.2 °F 69% 30.08 in 6.0 mi NNW 10.4 mph - 0.00 in   Haze
6:56 PM 24.1 °F 14.4 °F 17.1 °F 75% 30.09 in 7.0 mi NNW 9.2 mph - 0.00 in Snow Light Snow
7:56 PM 24.1 °F 15.2 °F 16.2 °F 72% 30.10 in 7.0 mi NW 8.1 mph - 0.00 in Snow Light Snow
8:56 PM 24.1 °F 15.2 °F 16.2 °F 72% 30.10 in 8.0 mi North 8.1 mph - 0.00 in   Overcast
9:06 PM 24.8 °F 16.9 °F 15.8 °F 69% 30.05 in 8.0 mi NNE 6.9 mph - 0.00 in Snow Light Snow
9:56 PM 24.1 °F 17.0 °F 16.2 °F 72% 30.10 in 8.0 mi NW 5.8 mph - 0.00 in Snow Light Snow
10:56 PM 24.1 °F 19.7 °F 17.1 °F 75% 30.09 in 8.0 mi NNW 3.5 mph - 0.00 in   Overcast
11:38 PM 24.8 °F 17.9 °F 17.6 °F 74% 30.05 in 7.0 mi NW 5.8 mph - 0.00 in Snow Light Snow
11:56 PM 24.1 °F 17.0 °F 17.1 °F 75% 30.09 in 7.0 mi NW 5.8 mph - 0.00 in Snow Light Snow